User: anonymous   Login
Location: ?ejeti?ky
(50.4060°N, 14.9016°E)
Time: 12:39:21
(UTC+00:00)
Language:

Cosmos 1842 Rocket - Orbit

View from above orbital plane
View from above orbital plane
View from above satellite
View from above satellite

Ground track
Ground track

The orbit data is extracted from the following two-line orbital elements,

1 17912U 87038B   21138.11374977  .00000077  00000-0  64758-5 0  9999
2 17912  82.4998 147.6440 0019788 193.8962 166.1711 14.83079188839809
Epoch (UTC): 18 May 2021 02:43:47
Eccentricity: 0.0019788
inclination: 82.4998°
perigee height: 606 km
apogee height: 633 km
right ascension of ascending node: 147.6440°
argument of perigee: 193.8962°
revolutions per day: 14.83079188
mean anomaly at epoch: 166.1711°
orbit number at epoch: 83980

The dashed part of the orbit path shows where the satellite is in the earth's shadow,  

DLR